Погода в Серинхисаре

Турция     37°34′50″N   29°15′49″E
темп.,
°C
ветер,
м/с
пор.,
м/с
влажн.,
%
обл.,
%
осадки,
мм/ч
давл.,
гПа
погр.,
м
16 апреля, пт
пт1600:00+8юз1256100 0.0 101715
03:00+7ююв116199 0.0 101611
06:00+6ююв116233 0.0 101611
09:00+11ю124644 0.0 1016343
12:00+17юз362955 0.0 10151574
15:00+19зюз783199 0.0 10141787
18:00+17зюз5639100 0.0 10151205
21:00+13юз1150100 0.0 101612
17 апреля, сб
сб1700:00+11ю115288 0.0 101711
03:00+11вюв3250100 0.0 101622
06:00+11ююв2258100 0.1 101716
09:00+14ююв3652100 0.3 1017435
12:00+17ююв564395 0.0 1016773
15:00+22ююз81624100 0.0 10131731
18:00+19ююз71626100 0.0 10131347
21:00+15ю583399 0.0 1016127
18 апреля, вс
вс1800:00+14ю3437100 0.0 101647
03:00+13ююв4540100 0.0 101555
06:00+13ю3352100 0.2 101729
09:00+16з3847100 0.4 1019686
12:00+21юз51727100 0.0 10172753
15:00+22зюз5923100 0.0 10161577
18:00+20з3427100 0.0 1015945
21:00+16ссз2244100 0.0 101719
19 апреля, пн
пн1900:00+15ссв1153100 0.0 101611
03:00+14в1158100 0.0 101411
06:00+13юв0157100 0.0 101211
09:00+17ю2636100 0.0 1011348
12:00+22юз41927100 0.0 10072585
15:00+18з6742100 0.0 1008836
18:00+17юз7144646 0.0 10071636
21:00+11з357665 0.1 1010218
20 апреля, вт
вт2000:00+8зюз227448 0.0 101133
03:00+6з2269100 0.0 101242
06:00+4юз22760 0.0 101329
09:00+8з24410 0.0 1014936
12:00+12з46330 0.0 10141497
15:00+14з55310 0.0 10131783
18:00+14зсз54334 0.0 10131884
21:00+9зсз22564 0.0 101532